Middleton, WI

2:43 PM CDT on July 22, 2017 (GMT -0500)
Middleton

Weather History for KC29 - April, 2013

Change the Weather History Date:

Thursday, April 4, 2013

  Actual Average (KMSN) Record (KMSN)
Temperature  
Mean Temperature 46 °F -  
Max Temperature 59 °F 49 °F 77 °F (1929)
Min Temperature 32 °F 29 °F 10 °F (1886)
Degree Days  
Heating Degree Days 20    
Moisture  
Dew Point 24 °F    
Average Humidity 48    
Maximum Humidity 67    
Minimum Humidity 29    
Precipitation  
Precipitation 0.00 in - - ()
Sea Level Pressure  
Sea Level Pressure 30.08 in    
Wind  
Wind Speed 8 mph (WSW)    
Max Wind Speed 18 mph    
Max Gust Speed 25 mph    
Visibility 10 miles    
Events      
Averages and records for this station are not official NWS values.
T = Trace of Precipitation, MM = Missing Value Source: NWS Daily Summary

Daily Weather History Graph

Daily Weather History Graph

Search for Another Location

Airport or City:

Trip Planner

Search our weather history database for the weather conditions in past years. The results will help you decide how hot, cold, wet, or windy it might be!

Date:

Astronomy

Apr. 04, 2013 Rise Set
Actual Time 6:34 AM CDT 7:28 PM CDT
Civil Twilight 6:05 AM CDT 7:57 PM CDT
Nautical Twilight 5:31 AM CDT 8:31 PM CDT
Astronomical Twilight 4:55 AM CDT 9:07 PM CDT
Moon 3:10 AM CDT (4/4) 1:38 PM CDT (4/4)
Length of Visible Light 13h 51m
Length of Day
12h 53m
Waning Crescent, 33% of the Moon is Illuminated
Apr 4
Waning Crescent
Apr 10
New
Apr 18
First Quarter
Apr 25
Full
May 2
Last Quarter

Hourly Weather History & Observations

Time (CDT) Temp. Windchill Dew Point Humidity Pressure Visibility Wind Dir Wind Speed Gust Speed Precip Events Conditions
12:15 AM 36.3 °F - 17.6 °F 47% 30.25 in 10.0 mi Calm Calm - N/A   Clear
12:35 AM 36.0 °F - 17.6 °F 47% 30.25 in 10.0 mi Calm Calm - N/A   Clear
12:55 AM 35.2 °F - 18.3 °F 50% 30.24 in 10.0 mi Calm Calm - N/A   Clear
1:15 AM 34.2 °F 28.2 °F 20.1 °F 57% 30.23 in 10.0 mi SSW 6.9 mph - N/A   Clear
1:35 AM 34.7 °F 30.6 °F 19.6 °F 54% 30.23 in 10.0 mi SSW 4.6 mph - N/A   Clear
1:55 AM 34.7 °F 29.6 °F 19.6 °F 54% 30.22 in 10.0 mi SSW 5.8 mph - N/A   Clear
2:15 AM 34.2 °F 28.2 °F 19.4 °F 55% 30.22 in 10.0 mi SSW 6.9 mph - N/A   Clear
2:35 AM 33.8 °F 28.6 °F 19.2 °F 55% 30.20 in 10.0 mi SSW 5.8 mph - N/A   Clear
2:55 AM 33.4 °F 27.3 °F 19.2 °F 56% 30.20 in 10.0 mi SSW 6.9 mph - N/A   Clear
3:15 AM 33.8 °F 28.6 °F 18.1 °F 53% 30.19 in 10.0 mi SSW 5.8 mph - N/A   Clear
3:35 AM 33.1 °F 26.9 °F 18.3 °F 55% 30.18 in 10.0 mi South 6.9 mph - N/A   Clear
3:55 AM 33.1 °F 26.1 °F 18.5 °F 55% 30.18 in 10.0 mi SSW 8.1 mph - N/A   Clear
4:15 AM 32.9 °F 26.7 °F 18.9 °F 56% 30.18 in 10.0 mi SSW 6.9 mph - N/A   Clear
4:35 AM 32.9 °F 26.7 °F 18.9 °F 56% 30.17 in 10.0 mi South 6.9 mph - N/A   Clear
4:55 AM 32.9 °F 26.7 °F 19.0 °F 57% 30.18 in 10.0 mi SSW 6.9 mph - N/A   Clear
5:15 AM 32.5 °F 25.5 °F 19.0 °F 58% 30.18 in 10.0 mi SSW 8.1 mph - N/A   Clear
5:35 AM 32.9 °F 26.7 °F 19.2 °F 57% 30.18 in 10.0 mi SSW 6.9 mph - N/A   Clear
5:55 AM 32.9 °F 25.9 °F 19.2 °F 57% 30.17 in 10.0 mi SSW 8.1 mph - N/A   Clear
6:15 AM 32.7 °F 26.4 °F 19.6 °F 58% 30.17 in 10.0 mi SSW 6.9 mph - N/A   Clear
6:35 AM 32.9 °F 25.3 °F 19.6 °F 58% 30.15 in 10.0 mi SSW 9.2 mph - N/A   Clear
6:55 AM 33.6 °F 26.2 °F 19.0 °F 55% 30.15 in 10.0 mi SW 9.2 mph - N/A   Clear
7:15 AM 34.9 °F 27.7 °F 18.5 °F 51% 30.14 in 10.0 mi SSW 9.2 mph - N/A   Clear
7:35 AM 36.0 °F 28.5 °F 18.9 °F 50% 30.14 in 10.0 mi SSW 10.4 mph - N/A   Clear
7:55 AM 37.4 °F 30.3 °F 19.2 °F 48% 30.14 in 10.0 mi SSW 10.4 mph - N/A   Clear
8:15 AM 39.2 °F 30.8 °F 18.5 °F 43% 30.12 in 10.0 mi SSW 15.0 mph 19.6 mph N/A   Clear
8:35 AM 40.8 °F 33.7 °F 19.0 °F 42% 30.11 in 10.0 mi SW 12.7 mph - N/A   Clear
8:55 AM 41.9 °F 36.3 °F 19.0 °F 40% 30.11 in 10.0 mi SW 9.2 mph - N/A   Clear
9:15 AM 43.3 °F 36.5 °F 18.9 °F 38% 30.10 in 10.0 mi SW 13.8 mph 21.9 mph N/A   Clear
9:35 AM 43.9 °F 36.5 °F 19.0 °F 37% 30.09 in 10.0 mi SW 16.1 mph 24.2 mph N/A   Clear
9:55 AM 44.8 °F 38.7 °F 20.1 °F 37% 30.10 in 10.0 mi WSW 12.7 mph 18.4 mph N/A   Clear
10:15 AM 46.4 °F 39.2 °F 19.8 °F 35% 30.09 in 10.0 mi WSW 18.4 mph 25.3 mph N/A   Clear
10:35 AM 48.2 °F - 20.3 °F 33% 30.09 in 10.0 mi WSW 16.1 mph 23.0 mph N/A   Clear
10:55 AM 48.9 °F - 21.0 °F 33% 30.08 in 10.0 mi SW 13.8 mph 19.6 mph N/A   Clear
11:55 AM 52.3 °F - 21.2 °F 30% 30.06 in 10.0 mi WSW 15.0 mph 21.9 mph N/A   Clear
12:15 PM 52.5 °F - 22.6 °F 31% 30.05 in 10.0 mi WSW 12.7 mph 19.6 mph N/A   Clear
12:35 PM 53.8 °F - 22.8 °F 30% 30.03 in 10.0 mi SW 12.7 mph 20.7 mph N/A   Clear
12:55 PM 54.7 °F - 24.1 °F 31% 30.02 in 10.0 mi WSW 10.4 mph 20.7 mph N/A   Clear
1:15 PM 55.6 °F - 25.0 °F 31% 30.02 in 10.0 mi WSW 9.2 mph 19.6 mph N/A   Clear
1:35 PM 56.3 °F - 26.1 °F 31% 30.00 in 10.0 mi WSW 11.5 mph 17.3 mph N/A   Clear
1:55 PM 57.6 °F - 25.5 °F 29% 29.99 in 10.0 mi West 12.7 mph 19.6 mph N/A   Clear
2:15 PM 57.2 °F - 26.8 °F 31% 29.98 in 10.0 mi West 13.8 mph 18.4 mph N/A   Mostly Cloudy
2:35 PM 57.7 °F - 27.1 °F 31% 29.98 in 10.0 mi WSW 16.1 mph 21.9 mph N/A   Overcast
2:55 PM 58.6 °F - 27.5 °F 30% 29.97 in 10.0 mi WSW 15.0 mph - N/A   Overcast
3:15 PM 58.1 °F - 28.2 °F 32% 29.97 in 10.0 mi WSW 11.5 mph 18.4 mph N/A   Mostly Cloudy
3:35 PM 56.5 °F - 28.9 °F 35% 29.96 in 10.0 mi West 15.0 mph - N/A   Mostly Cloudy
3:55 PM 57.7 °F - 29.7 °F 34% 29.96 in 10.0 mi WSW 11.5 mph 21.9 mph N/A   Overcast
4:15 PM 57.6 °F - 30.7 °F 36% 29.95 in 10.0 mi West 15.0 mph 23.0 mph N/A   Overcast
4:35 PM 59.0 °F - 31.5 °F 35% 29.96 in 10.0 mi WNW 16.1 mph - N/A   Scattered Clouds
4:55 PM 58.3 °F - 31.1 °F 36% 29.96 in 10.0 mi West 13.8 mph - N/A   Clear
5:15 PM 57.0 °F - 32.2 °F 39% 29.97 in 10.0 mi NW 15.0 mph - N/A   Clear
5:35 PM 56.3 °F - 32.9 °F 41% 29.97 in 10.0 mi NW 16.1 mph 20.7 mph N/A   Clear
5:55 PM 55.4 °F - 32.4 °F 42% 29.97 in 10.0 mi WNW 11.5 mph - N/A   Clear
6:15 PM 54.5 °F - 32.7 °F 44% 29.98 in 10.0 mi WNW 8.1 mph - N/A   Clear
6:35 PM 53.8 °F - 31.8 °F 43% 29.98 in 10.0 mi WNW 11.5 mph - N/A   Clear
6:55 PM 52.3 °F - 29.5 °F 42% 29.98 in 10.0 mi NW 10.4 mph - N/A   Clear
7:15 PM 49.8 °F - 31.3 °F 49% 29.99 in 10.0 mi NNW 9.2 mph - N/A   Clear
7:55 PM 46.0 °F 41.9 °F 32.0 °F 58% 29.99 in 10.0 mi NNW 8.1 mph - N/A   Clear
8:15 PM 43.5 °F 40.9 °F 32.9 °F 66% 30.00 in 10.0 mi NNW 4.6 mph - N/A   Clear
8:35 PM 43.7 °F 39.7 °F 32.0 °F 63% 30.00 in 10.0 mi NW 6.9 mph - N/A   Clear
8:55 PM 43.0 °F 38.8 °F 32.0 °F 65% 30.01 in 10.0 mi NW 6.9 mph - N/A   Clear
9:15 PM 42.8 °F 38.6 °F 31.3 °F 64% 30.02 in 10.0 mi NNW 6.9 mph - N/A   Clear
9:35 PM 42.8 °F 40.1 °F 30.7 °F 62% 30.03 in 10.0 mi NW 4.6 mph - N/A   Clear
9:55 PM 41.0 °F 38.0 °F 30.7 °F 67% 30.03 in 10.0 mi NW 4.6 mph - N/A   Clear
10:15 PM 41.0 °F 37.1 °F 29.8 °F 64% 30.04 in 10.0 mi NW 5.8 mph - N/A   Clear
10:35 PM 41.0 °F 37.1 °F 29.1 °F 63% 30.04 in 10.0 mi NW 5.8 mph - N/A   Clear
10:55 PM 40.1 °F 36.1 °F 28.8 °F 64% 30.05 in 10.0 mi NW 5.8 mph - N/A   Clear
11:15 PM 39.0 °F 34.0 °F 28.4 °F 66% 30.05 in 10.0 mi NW 6.9 mph - N/A   Clear
11:35 PM 38.5 °F 32.7 °F 28.4 °F 67% 30.05 in 10.0 mi NW 8.1 mph - N/A   Clear
11:55 PM 39.7 °F 34.9 °F 28.0 °F 63% 30.06 in 10.0 mi NW 6.9 mph - N/A   Clear